CZ-6A DEB, 56238

Orbit data source: Space-Track

CZ-6A DEB, 56238 is space debris in SSO originally from a launch on Fri, 11 Nov 2022 UTC launched from the Taiyaun Space Center, China (TSC). Debris objects in space refer to the collection of defunct objects orbiting the Earth. Examples of debris include non-operational satellites, rocket bodies, and fragments generated from explosions, collisions, or faulty payload assembly.

Loading next visibility...
Identifier
56238, 2022-151ABE
Orbit
SSO
Country
Flag of CNCN / PRC
Related business
Manufacturer
SAST
Mission
Spacecraft
Bus & Motor
Unknown
Mass
Unknown
Launch date (UTC)
2022-11-11 (4 years ago)
Launch vehicle
Unknown
Launch site
Taiyaun Space Center, China (TSC)
Object type
Payload
Rocket body
Debris
Shape & HBR
Unknown shape, 0.1 m
Radar Cross Section
Medium (>0.1 m² and <1 m²)

Expand to show TLE details & history
Last TLE update: 1 day ago

TLE from 1 day ago
0 CZ-6A DEB
1 56238U 22151ABE 26206.03882923  .00000179  00000-0  20846-3 0  9996
2 56238  98.9098 119.8306 0245926 119.0984 243.5027 13.67436517167074
Epoch: 2026-07-25T00:55Z
TLE epoch observation values (Epoch: 2026-07-25T00:55:54.845Z)
Latitude
-0.00005°
Longitude
163.09525°
Altitude
1,096.214 km
Speed
7.262 km/s
True Right ascension
07h 59m 19s
True Declination
0° 00' 00"
Sunlit
Object was in daylight at epoch
Visualization orbit readout
Latitude
Unknown
Longitude
Unknown
Altitude
Unknown
Speed
Unknown
Apparent Right ascension
Unknown
Apparent Declination
Unknown
Sunlit
N/A
Visualization observer readout
Local Sidereal Time
15:10:19
Azimuth
Unknown
Elevation
Unknown
Doppler factor
Unknown
Orbital elements
Apogee altitude
1,187.621 km
Perigee altitude
824.429 km
Semi-major axis
7,384.162 km
Eccentricity
0.02459
Inclination
98.9098°
RAAN
119.8306°
Arg. of periapsis
119.0984°
True anomaly
241.01554°
Mean anomaly
243.5027°
Eccentric anomaly
242.25564°
Mean motion
3.42051 °/min
Orbital period
105.25 mins
BSTAR
0.00020846
Loading maneuver chart data...
Computing Atmospheric mass density...
Loading historical data...
Loading historical data...
Loading historical data...
Loading historical data...
Loading historical data...
Loading historical data...
Loading historical data...

Documentation

Showing up to 5 results
|